Weather History for Lovelock, NV

Change the Weather History Date:

Thursday, March 28, 2013

  Actual Average Record
Temperature  
Mean Temperature 50 °F -  
Max Temperature 66 °F 59 °F 81 °F (1966)
Min Temperature 35 °F 28 °F 4 °F (1972)
Degree Days  
Heating Degree Days 14    
Moisture  
Dew Point 29 °F    
Average Humidity 39    
Maximum Humidity 64    
Minimum Humidity 23    
Precipitation  
Precipitation 0.00 in - - ()
Sea Level Pressure  
Sea Level Pressure 30.00 in    
Wind  
Wind Speed 8 mph (WNW)    
Max Wind Speed 20 mph    
Max Gust Speed 23 mph    
Visibility 10 miles    
Events      
Averages and records for this station are not official NWS values.
T = Trace of Precipitation, MM = Missing Value Source: NWS Daily Summary

Daily Weather History Graph

Daily Weather History Graph

Search for Another Location

Airport:

Trip Planner

Search our weather history database for the weather conditions in past years. The results will help you decide how hot, cold, wet, or windy it might be!

Date:

Astronomy

Mar. 28, 2013 Rise Set
Actual Time 6:44 AM PDT 7:14 PM PDT
Civil Twilight 6:16 AM PDT 7:42 PM PDT
Nautical Twilight 5:44 AM PDT 8:14 PM PDT
Astronomical Twilight 5:12 AM PDT 8:47 PM PDT
Moon 9:12 PM PDT (3/28) 7:15 AM PDT (3/28)
Length of Visible Light 13h 25m
Length of Day
12h 30m
Full, 98% of the Moon is Illuminated
Mar 28
Full
Apr 2
Last Quarter
Apr 10
New
Apr 18
First Quarter
Apr 25
Full

Hourly Weather History & Observations

Time (PDT) Temp. Windchill Dew Point Humidity Pressure Visibility Wind Dir Wind Speed Gust Speed Precip Events Conditions
12:53 AM 51.1 °F - 28.0 °F 41% 29.92 in 10.0 mi NE 10.4 mph - N/A   Overcast
1:53 AM 48.0 °F - 26.1 °F 42% 29.93 in 10.0 mi NNE 8.1 mph - N/A   Overcast
2:53 AM 45.0 °F 42.6 °F 27.0 °F 49% 29.95 in 10.0 mi NW 4.6 mph - N/A   Scattered Clouds
3:53 AM 46.9 °F - 27.0 °F 46% 29.94 in 10.0 mi North 4.6 mph - N/A   Overcast
4:53 AM 43.0 °F - 26.1 °F 51% 29.96 in 10.0 mi Calm Calm - N/A   Overcast
5:53 AM 43.0 °F 40.3 °F 26.1 °F 51% 29.97 in 10.0 mi East 4.6 mph - N/A   Mostly Cloudy
6:53 AM 35.1 °F 32.2 °F 24.1 °F 64% 30.01 in 10.0 mi West 3.5 mph - N/A   Scattered Clouds
7:53 AM 41.0 °F 39.0 °F 27.0 °F 57% 30.02 in 10.0 mi ENE 3.5 mph - N/A   Overcast
8:53 AM 50.0 °F - 30.9 °F 48% 30.04 in 10.0 mi WNW 4.6 mph - N/A   Mostly Cloudy
9:53 AM 57.0 °F - 30.9 °F 37% 30.02 in 10.0 mi Calm Calm - N/A   Mostly Cloudy
10:53 AM 59.0 °F - 33.1 °F 38% 30.02 in 10.0 mi Variable 3.5 mph - N/A   Clear
11:53 AM 62.1 °F - 32.0 °F 32% 30.00 in 10.0 mi Variable 4.6 mph - N/A   Mostly Cloudy
12:53 PM 63.0 °F - 30.0 °F 29% 29.99 in 10.0 mi WSW 6.9 mph - N/A   Scattered Clouds
1:53 PM 66.0 °F - 30.9 °F 27% 29.98 in 10.0 mi WSW 8.1 mph - N/A   Mostly Cloudy
2:53 PM 66.9 °F - 30.0 °F 25% 29.96 in 10.0 mi WSW 11.5 mph 16.1 mph N/A   Clear
3:53 PM 64.9 °F - 28.0 °F 25% 29.95 in 10.0 mi SSW 8.1 mph - N/A   Mostly Cloudy
4:53 PM 66.0 °F - 27.0 °F 23% 29.95 in 10.0 mi Variable 5.8 mph - N/A   Overcast
5:53 PM 64.0 °F - 26.1 °F 24% 29.96 in 10.0 mi West 16.1 mph - N/A   Overcast
6:03 PM 64.0 °F - 27.0 °F 25% 30.00 in 10.0 mi West 19.6 mph - N/A   Mostly Cloudy
6:53 PM 61.0 °F - 25.0 °F 25% 30.00 in 10.0 mi West 15.0 mph - N/A   Clear
7:53 PM 57.0 °F - 25.0 °F 29% 30.03 in 10.0 mi WNW 12.7 mph - N/A   Clear
8:53 PM 55.0 °F - 34.0 °F 45% 30.04 in 10.0 mi WNW 17.3 mph - N/A   Clear
9:53 PM 55.0 °F - 34.0 °F 45% 30.07 in 10.0 mi WNW 18.4 mph 23.0 mph N/A   Overcast
10:53 PM 55.0 °F - 34.0 °F 45% 30.08 in 10.0 mi NNE 5.8 mph - N/A   Overcast
11:53 PM 50.0 °F - 32.0 °F 50% 30.09 in 10.0 mi East 10.4 mph - N/A   Overcast